This is the latest recevied weather packets stored in our database for station/object R2BLN-13. If no packets are shown the sender has not sent any weather packets the latest 10 day(s).
| Time | Temp. | Humidity | Pressure | Rain* | Wind** | Luminosity | Snow |
|---|---|---|---|---|---|---|---|
| 1787883318 | 10.56° C | 76% | 1003.4 hPa | - | - | - | - |
| 1787882718 | 10.56° C | 76% | 1003.4 hPa | - | - | - | - |
| 1787882118 | 10.56° C | 76% | 1003.3 hPa | - | - | - | - |
| 1787881489 | 10° C | 76% | 1003.3 hPa | - | - | - | - |
| 1787880888 | 10° C | 76% | 1003.2 hPa | - | - | - | - |
| 1787880288 | 10° C | 77% | 1003.4 hPa | - | - | - | - |
| 1787879688 | 10° C | 77% | 1003.4 hPa | - | - | - | - |
| 1787879088 | 9.44° C | 77% | 1003.4 hPa | - | - | - | - |
| 1787878488 | 9.44° C | 76% | 1003.4 hPa | - | - | - | - |
| 1787877888 | 9.44° C | 76% | 1003.4 hPa | - | - | - | - |
| 1787877288 | 9.44° C | 76% | 1003.5 hPa | - | - | - | - |
| 1787876688 | 8.89° C | 77% | 1003.5 hPa | - | - | - | - |
| 1787876088 | 8.89° C | 77% | 1003.5 hPa | - | - | - | - |
| 1787875488 | 8.33° C | 77% | 1003.4 hPa | - | - | - | - |
| 1787874888 | 8.33° C | 76% | 1003.4 hPa | - | - | - | - |
| 1787874288 | 7.78° C | 76% | 1003.3 hPa | - | - | - | - |
| 1787873688 | 8.33° C | 76% | 1003.2 hPa | - | - | - | - |
| 1787873088 | 8.33° C | 76% | 1003.3 hPa | - | - | - | - |
| 1787872488 | 8.33° C | 75% | 1003.2 hPa | - | - | - | - |
| 1787871888 | 8.33° C | 75% | 1003.2 hPa | - | - | - | - |
| 1787871288 | 8.33° C | 75% | 1003.2 hPa | - | - | - | - |
| 1787870679 | 8.33° C | 76% | 1003.1 hPa | - | - | - | - |
| 1787870058 | 8.33° C | 75% | 1003 hPa | - | - | - | - |
| 1787869458 | 8.33° C | 75% | 1002.9 hPa | - | - | - | - |
| 1787868858 | 8.89° C | 75% | 1002.9 hPa | - | - | - | - |
* Rain since midnight (hover to see other rain measurements)
** Current wind speed in m/s (hover to see current wind gust speed)